EW7417 Weather Reports


Display with metric or nautical units.
time (UTC)temp
F
wind
direction
speed
MPH
gust
MPH
rain 1hr
in
rain 24hr
in
rain mn
in
humidity
%
barometer
mb
20200926031009 63 0 3.0 5.0 0.00 0.00 0.00 24 1020.8
20200926030517 63 3 3.0 5.0 0.00 0.00 0.00 24 1020.8
20200926030023 63 350 2.0 4.0 0.00 0.00 0.00 25 1020.8
20200926025510 63 326 2.0 4.0 0.00 0.00 0.00 24 1020.8
20200926025011 63 326 2.0 4.0 0.00 0.00 0.00 24 1020.8
20200926024519 64 326 2.0 4.0 0.00 0.00 0.00 23 1020.9
20200926024017 64 326 2.0 4.0 0.00 0.00 0.00 23 1020.9
20200926023510 64 324 2.0 3.0 0.00 0.00 0.00 23 1020.9
20200926023018 64 324 2.0 3.0 0.00 0.00 0.00 22 1020.9
20200926022509 65 324 1.0 3.0 0.00 0.00 0.00 22 1020.9
20200926022011 65 324 0.0 0.0 0.00 0.00 0.00 21 1020.6
20200926021515 65 324 0.0 1.0 0.00 0.00 0.00 21 1020.6
20200926021012 65 324 0.0 1.0 0.00 0.00 0.00 21 1020.6
20200926020510 0 0.0 0.0 0.00 0.00 0.00 1020.6
20200926020019 0 0.0 0.0 0.00 0.00 0.00 1020.5
20200926015511 0 0.0 2.0 0.00 0.00 0.00 1020.4
20200926015020 65 283 1.0 2.0 0.00 0.00 0.00 21 1020.4
20200926014508 66 283 1.0 2.0 0.00 0.00 0.00 21 1020.4
20200926014011 66 283 1.0 3.0 0.00 0.00 0.00 21 1020.3
20200926013505 66 283 2.0 3.0 0.00 0.00 0.00 21 1020.3
20200926013006 66 283 1.0 3.0 0.00 0.00 0.00 21 1020.1
20200926012509 66 283 2.0 3.0 0.00 0.00 0.00 21 1020.1
20200926012008 66 289 1.0 4.0 0.00 0.00 0.00 21 1020.0
20200926011515 67 299 1.0 4.0 0.00 0.00 0.00 21 1020.0
20200926011005 67 244 1.0 7.0 0.00 0.00 0.00 20 1019.9
20200926010509 68 244 1.0 7.0 0.00 0.00 0.00 20 1019.9
20200926010022 68 227 3.0 5.0 0.00 0.00 0.00 20 1019.9
20200926005508 69 264 2.0 6.0 0.00 0.00 0.00 19 1019.6
20200926005008 69 209 3.0 9.0 0.00 0.00 0.00 19 1019.6
20200926004515 69 279 3.0 9.0 0.00 0.00 0.00 19 1019.6
20200926004010 70 271 3.0 7.0 0.00 0.00 0.00 19 1019.6
20200926003510 70 247 2.0 7.0 0.00 0.00 0.00 19 1019.6
20200926003020 71 231 4.0 11.0 0.00 0.00 0.00 19 1019.5
20200926002511 71 227 2.0 11.0 0.00 0.00 0.00 19 1019.6
20200926002010 71 220 3.0 9.0 0.00 0.00 0.00 18 1019.6
20200926001507 72 162 4.0 9.0 0.00 0.00 0.00 17 1019.6
20200926001009 73 186 3.0 10.0 0.00 0.00 0.00 18 1019.6
20200926000503 73 199 3.0 10.0 0.00 0.00 0.00 17 1019.5
20200926000026 73 234 3.0 9.0 0.00 0.00 0.00 18 1019.5
20200925235505 73 243 3.0 9.0 0.00 0.00 0.00 18 1019.4
20200925235005 74 200 4.0 7.0 0.00 0.00 0.00 17 1019.4
20200925234517 74 252 4.0 9.0 0.00 0.00 0.00 19 1019.4
20200925234009 74 261 5.0 10.0 0.00 0.00 0.00 18 1019.4
20200925233506 74 209 5.0 10.0 0.00 0.00 0.00 18 1019.4
20200925233024 74 195 4.0 10.0 0.00 0.00 0.00 18 1019.2
20200925232506 74 169 5.0 10.0 0.00 0.00 0.00 18 1019.2
20200925232007 75 190 3.0 13.0 0.00 0.00 0.00 18 1019.2
20200925231501 75 210 2.0 16.0 0.00 0.00 0.00 18 1019.2
20200925231005 75 185 6.0 16.0 0.00 0.00 0.00 18 1019.2
20200925230501 75 220 4.0 15.0 0.00 0.00 0.00 18 1019.1
20200925230009 76 152 5.0 9.0 0.00 0.00 0.00 18 1019.1
20200925225500 76 237 4.0 13.0 0.00 0.00 0.00 18 1019.2
20200925225012 76 192 5.0 13.0 0.00 0.00 0.00 18 1019.1
20200925224509 76 221 4.0 12.0 0.00 0.00 0.00 18 1019.2
20200925224009 76 175 4.0 12.0 0.00 0.00 0.00 18 1019.1
20200925223506 76 235 4.0 12.0 0.00 0.00 0.00 18 1019.1
20200925223000 76 180 6.0 12.0 0.00 0.00 0.00 18 1019.1
20200925222510 77 226 4.0 16.0 0.00 0.00 0.00 18 1019.1
20200925222000 77 151 6.0 16.0 0.00 0.00 0.00 19 1019.1
20200925221506 76 220 3.0 12.0 0.00 0.00 0.00 18 1019.2
20200925221001 76 255 6.0 12.0 0.00 0.00 0.00 18 1019.1
20200925220500 77 223 7.0 13.0 0.00 0.00 0.00 18 1019.2
20200925220000 77 188 7.0 13.0 0.00 0.00 0.00 18 1019.4
20200925215510 77 141 6.0 14.0 0.00 0.00 0.00 18 1019.2
20200925215000 77 213 7.0 14.0 0.00 0.00 0.00 18 1019.2
20200925214459 77 197 7.0 13.0 0.00 0.00 0.00 18 1019.4
20200925214000 77 171 6.0 14.0 0.00 0.00 0.00 18 1019.4
20200925213458 77 186 5.0 14.0 0.00 0.00 0.00 17 1019.4
20200925213001 77 164 5.0 11.0 0.00 0.00 0.00 18 1019.4
20200925212457 77 183 5.0 12.0 0.00 0.00 0.00 17 1019.6
20200925211957 77 189 6.0 13.0 0.00 0.00 0.00 18 1019.5
20200925211457 77 214 6.0 13.0 0.00 0.00 0.00 18 1019.5
20200925211000 77 200 5.0 15.0 0.00 0.00 0.00 17 1019.8
20200925210457 77 240 6.0 15.0 0.00 0.00 0.00 17 1019.8
20200925205959 78 258 6.0 12.0 0.00 0.00 0.00 18 1019.9
20200925205459 78 188 5.0 18.0 0.00 0.00 0.00 18 1019.8
20200925204958 78 204 7.0 18.0 0.00 0.00 0.00 18 1019.9
20200925204459 78 120 6.0 13.0 0.00 0.00 0.00 17 1019.8
20200925203956 78 220 4.0 11.0 0.00 0.00 0.00 19 1020.0
20200925203458 77 196 6.0 15.0 0.00 0.00 0.00 19 1020.0
20200925203000 77 155 8.0 15.0 0.00 0.00 0.00 18 1020.0
20200925202457 78 224 6.0 14.0 0.00 0.00 0.00 18 1020.0
20200925201958 78 189 8.0 14.0 0.00 0.00 0.00 18 1020.1
20200925201456 78 247 2.0 12.0 0.00 0.00 0.00 18 1020.1
20200925200957 77 212 6.0 13.0 0.00 0.00 0.00 18 1020.0
20200925200459 77 196 7.0 13.0 0.00 0.00 0.00 18 1020.1
20200925195957 0 0.0 0.0 0.00 0.00 0.00 1020.3
20200925195458 0 0.0 7.0 0.00 0.00 0.00 1020.1
20200925194955 76 269 4.0 14.0 0.00 0.00 0.00 19 1020.4
20200925194459 77 173 5.0 14.0 0.00 0.00 0.00 19 1020.5
20200925193958 77 182 4.0 6.0 0.00 0.00 0.00 19 1020.5
20200925193453 77 192 4.0 6.0 0.00 0.00 0.00 19 1020.6
20200925192954 76 274 2.0 6.0 0.00 0.00 0.00 20 1020.6
20200925192455 76 152 4.0 7.0 0.00 0.00 0.00 20 1021.0
20200925191955 76 197 4.0 11.0 0.00 0.00 0.00 21 1021.0
20200925191454 75 203 4.0 11.0 0.00 0.00 0.00 21 1021.0
20200925190955 75 257 4.0 14.0 0.00 0.00 0.00 22 1021.0
20200925190456 75 227 5.0 14.0 0.00 0.00 0.00 22 1021.3
20200925185953 74 178 4.0 16.0 0.00 0.00 0.00 23 1021.0
20200925185510 74 185 8.0 16.0 0.00 0.00 0.00 22 1021.3
20200925184953 74 124 5.0 11.0 0.00 0.00 0.00 23 1021.2
20200925184456 74 113 5.0 9.0 0.00 0.00 0.00 23 1021.3
20200925183955 73 206 5.0 9.0 0.00 0.00 0.00 23 1021.3
20200925183455 74 127 4.0 9.0 0.00 0.00 0.00 22 1021.4
20200925182954 73 233 4.0 6.0 0.00 0.00 0.00 23 1021.5
20200925182452 73 178 3.0 6.0 0.00 0.00 0.00 23 1021.4
20200925181952 72 180 3.0 6.0 0.00 0.00 0.00 23 1021.7
20200925181458 73 131 5.0 6.0 0.00 0.00 0.00 23 1021.5
20200925180955 0 0.0 0.0 0.00 0.00 0.00 1021.5
20200925180454 0 0.0 0.0 0.00 0.00 0.00 1021.8
20200925175953 0 0.0 0.0 0.00 0.00 0.00 1021.7
20200925175451 0 0.0 0.0 0.00 0.00 0.00 1021.7
20200925174952 0 0.0 0.0 0.00 0.00 0.00 1021.8
20200925174450 0 0.0 0.0 0.00 0.00 0.00 1021.7
20200925173950 0 0.0 0.0 0.00 0.00 0.00 1021.8
20200925173447 0 0.0 0.0 0.00 0.00 0.00 1021.9
20200925172947 0 0.0 0.0 0.00 0.00 0.00 1021.8
20200925172447 0 0.0 0.0 0.00 0.00 0.00 1021.8
20200925171945 0 0.0 0.0 0.00 0.00 0.00 1021.9
20200925171444 0 0.0 0.0 0.00 0.00 0.00 1021.9
20200925170945 0 0.0 5.0 0.00 0.00 0.00 1021.9
20200925170441 69 238 2.0 5.0 0.00 0.00 0.00 25 1022.1
20200925165942 69 216 2.0 5.0 0.00 0.00 0.00 25 1022.1
20200925165444 68 209 1.0 4.0 0.00 0.00 0.00 24 1021.9
20200925164938 68 238 2.0 4.0 0.00 0.00 0.00 25 1021.9
20200925164440 68 257 1.0 4.0 0.00 0.00 0.00 24 1022.1
20200925163939 68 193 2.0 4.0 0.00 0.00 0.00 26 1021.9
20200925163438 67 147 2.0 4.0 0.00 0.00 0.00 25 1022.1
20200925162941 67 179 1.0 7.0 0.00 0.00 0.00 24 1022.1
20200925162439 67 240 2.0 7.0 0.00 0.00 0.00 25 1022.1
20200925161940 66 179 2.0 6.0 0.00 0.00 0.00 27 1021.9
20200925161439 66 180 2.0 6.0 0.00 0.00 0.00 26 1022.1
20200925160940 65 193 3.0 5.0 0.00 0.00 0.00 26 1021.9
20200925160438 65 180 2.0 5.0 0.00 0.00 0.00 27 1021.9
20200925155940 65 189 1.0 3.0 0.00 0.00 0.00 26 1021.9
20200925155438 64 182 2.0 5.0 0.00 0.00 0.00 26 1021.9
20200925154939 64 186 3.0 5.0 0.00 0.00 0.00 26 1021.9
20200925154438 0 0.0 0.0 0.00 0.00 0.00 1022.1
20200925153938 0 0.0 0.0 0.00 0.00 0.00 1022.1
20200925153436 0 0.0 0.0 0.00 0.00 0.00 1021.9
20200925152936 0 0.0 0.0 0.00 0.00 0.00 1021.8
20200925152436 63 100 0.0 1.0 0.00 0.00 0.00 28 1021.8
20200925151931 63 100 1.0 1.0 0.00 0.00 0.00 28 1021.9
20200925151434 0 0.0 0.0 0.00 0.00 0.00 1021.7
20200925150933 0 0.0 0.0 0.00 0.00 0.00 1021.8
20200925150434 0 0.0 0.0 0.00 0.00 0.00 1021.7
20200925145933 0 0.0 0.0 0.00 0.00 0.00 1021.7
20200925145429 0 0.0 0.0 0.00 0.00 0.00 1021.7
20200925144930 0 0.0 0.0 0.00 0.00 0.00 1021.8
20200925144427 0 0.0 0.0 0.00 0.00 0.00 1021.8
20200925143927 0 0.0 0.0 0.00 0.00 0.00 1021.8
20200925143425 0 0.0 0.0 0.00 0.00 0.00 1021.7
20200925142925 0 0.0 0.0 0.00 0.00 0.00 1021.7
20200925142424 0 0.0 0.0 0.00 0.00 0.00 1021.7
20200925141928 0 0.0 0.0 0.00 0.00 0.00 1021.5
20200925141422 59 1 0.0 0.0 0.00 0.00 0.00 28 1021.4
20200925140923 59 1 0.0 0.0 0.00 0.00 0.00 28 1021.4
20200925140424 59 1 0.0 1.0 0.00 0.00 0.00 28 1021.4
20200925135923 59 1 0.0 1.0 0.00 0.00 0.00 28 1021.3
20200925135419 59 1 0.0 1.0 0.00 0.00 0.00 28 1021.3
20200925134923 58 1 0.0 0.0 0.00 0.00 0.00 27 1021.4
20200925134420 58 1 0.0 1.0 0.00 0.00 0.00 27 1021.4
20200925133921 58 1 0.0 2.0 0.00 0.00 0.00 27 1021.3
20200925133419 58 1 0.0 2.0 0.00 0.00 0.00 28 1021.2
20200925132918 58 1 1.0 2.0 0.00 0.00 0.00 28 1021.2
20200925132418 57 1 1.0 3.0 0.00 0.00 0.00 29 1021.0
20200925131918 57 1 2.0 3.0 0.00 0.00 0.00 29 1020.9
20200925131418 57 1 2.0 3.0 0.00 0.00 0.00 29 1020.9
20200925130918 57 1 0.0 0.0 0.00 0.00 0.00 29 1020.9
20200925130420 57 1 0.0 0.0 0.00 0.00 0.00 29 1020.8
20200925125920 57 1 0.0 0.0 0.00 0.00 0.00 29 1020.8
20200925125418 57 1 0.0 0.0 0.00 0.00 0.00 28 1020.8
20200925124919 57 1 0.0 0.0 0.00 0.00 0.00 29 1020.5
20200925124418 57 1 0.0 0.0 0.00 0.00 0.00 30 1020.5
20200925123923 0 0.0 0.0 0.00 0.00 0.00 1020.4
20200925123417 0 0.0 0.0 0.00 0.00 0.00 1020.4
20200925122918 0 0.0 0.0 0.00 0.00 0.00 1020.4
20200925122416 0 0.0 0.0 0.00 0.00 0.00 1020.4
20200925121916 0 0.0 0.0 0.00 0.00 0.00 1020.4
20200925121414 0 0.0 2.0 0.00 0.00 0.00 1020.4
20200925120913 58 0 0.0 3.0 0.00 0.00 0.00 30 1020.3
20200925120411 58 0 2.0 3.0 0.00 0.00 0.00 30 1020.1
20200925115910 58 0 1.0 2.0 0.00 0.00 0.00 29 1020.3
20200925115412 58 0 1.0 2.0 0.00 0.00 0.00 29 1020.1
20200925114912 59 0 0.0 0.0 0.00 0.00 0.00 28 1020.0
20200925114411 59 0 0.0 0.0 0.00 0.00 0.00 29 1020.0
20200925113911 0 0.0 0.0 0.00 0.00 0.00 1019.9
20200925112914 59 0 0.0 2.0 0.00 0.00 0.00 28 1019.9
20200925112408 59 0 1.0 4.0 0.00 0.00 0.00 28 1019.8
20200925111906 59 0 2.0 4.0 0.00 0.00 0.00 28 1019.6
20200925111406 59 27 0.0 3.0 0.00 0.00 0.00 28 1019.8
20200925110907 59 28 2.0 3.0 0.00 0.00 0.00 28 1019.8
20200925110407 59 28 2.0 3.0 0.00 0.00 0.00 28 1019.6
20200925105909 59 30 1.0 3.0 0.00 0.00 0.00 29 1019.6
20200925105409 59 35 1.0 3.0 0.00 0.00 0.00 29 1019.6
20200925104906 59 58 0.0 1.0 0.00 0.00 0.00 29 1019.6
20200925104408 59 59 0.0 2.0 0.00 0.00 0.00 29 1019.5
20200925103918 59 59 0.0 2.0 0.00 0.00 0.00 28 1019.5
20200925103407 59 59 0.0 3.0 0.00 0.00 0.00 29 1019.6
20200925102908 59 59 2.0 3.0 0.00 0.00 0.00 29 1019.5
20200925102408 60 336 1.0 3.0 0.00 0.00 0.00 29 1019.5
20200925101907 60 336 0.0 3.0 0.00 0.00 0.00 29 1019.5
20200925101405 59 333 1.0 3.0 0.00 0.00 0.00 29 1019.5
20200925100906 60 333 2.0 3.0 0.00 0.00 0.00 29 1019.5
20200925100406 59 333 1.0 4.0 0.00 0.00 0.00 29 1019.5
20200925095910 59 333 1.0 4.0 0.00 0.00 0.00 29 1019.5
20200925095406 59 323 1.0 2.0 0.00 0.00 0.00 30 1019.5
20200925094929 59 323 0.0 0.0 0.00 0.00 0.00 30 1019.5
20200925094405 59 323 0.0 3.0 0.00 0.00 0.00 30 1019.5
20200925093906 59 323 0.0 3.0 0.00 0.00 0.00 30 1019.6
20200925093407 59 323 2.0 4.0 0.00 0.00 0.00 30 1019.6
20200925092906 59 323 2.0 4.0 0.00 0.00 0.00 30 1019.6
20200925092405 59 323 0.0 3.0 0.00 0.00 0.00 31 1019.5
20200925091904 59 323 2.0 3.0 0.00 0.00 0.00 31 1019.6
20200925091406 59 323 2.0 3.0 0.00 0.00 0.00 31 1019.6
20200925090906 59 323 2.0 3.0 0.00 0.00 0.00 31 1019.6
20200925090405 59 323 2.0 3.0 0.00 0.00 0.00 31 1019.6
20200925085906 59 323 2.0 3.0 0.00 0.00 0.00 31 1019.8
20200925085412 59 323 0.0 3.0 0.00 0.00 0.00 31 1019.6
20200925084907 59 323 2.0 3.0 0.00 0.00 0.00 31 1019.8
20200925084404 59 323 2.0 3.0 0.00 0.00 0.00 31 1019.8
20200925083905 59 323 2.0 2.0 0.00 0.00 0.00 32 1019.9
20200925083405 0 0.0 0.0 0.00 0.00 0.00 1019.9
20200925082905 0 0.0 0.0 0.00 0.00 0.00 1019.9
20200925082405 0 0.0 3.0 0.00 0.00 0.00 1020.0
20200925081904 59 323 2.0 3.0 0.00 0.00 0.00 31 1019.9
20200925081359 59 323 2.0 4.0 0.00 0.00 0.00 31 1020.0
20200925080901 60 323 3.0 4.0 0.00 0.00 0.00 31 1019.9
20200925080401 60 323 2.0 2.0 0.00 0.00 0.00 32 1019.9
20200925075859 59 323 1.0 3.0 0.00 0.00 0.00 32 1020.0
20200925075359 59 323 1.0 3.0 0.00 0.00 0.00 32 1020.0
20200925074912 59 323 1.0 3.0 0.00 0.00 0.00 32 1019.9
20200925074403 59 323 0.0 2.0 0.00 0.00 0.00 32 1019.9
20200925073900 59 323 0.0 2.0 0.00 0.00 0.00 32 1020.0
20200925073358 60 323 1.0 2.0 0.00 0.00 0.00 32 1020.0
20200925072901 60 323 0.0 3.0 0.00 0.00 0.00 32 1019.9
20200925072357 59 323 1.0 4.0 0.00 0.00 0.00 32 1019.9
20200925071858 59 323 2.0 4.0 0.00 0.00 0.00 32 1019.9
20200925071403 59 7 2.0 4.0 0.00 0.00 0.00 32 1019.9
20200925070858 59 4 2.0 4.0 0.00 0.00 0.00 32 1019.8
20200925070357 59 0 2.0 4.0 0.00 0.00 0.00 32 1019.9
20200925065858 60 0 3.0 4.0 0.00 0.00 0.00 31 1019.9
20200925065402 61 341 2.0 4.0 0.00 0.00 0.00 30 1019.9
20200925064900 61 341 2.0 3.0 0.00 0.00 0.00 29 1019.9
20200925064357 61 336 1.0 3.0 0.00 0.00 0.00 29 1020.0
20200925063858 62 336 2.0 3.0 0.00 0.00 0.00 29 1020.0
20200925063358 62 336 2.0 3.0 0.00 0.00 0.00 29 1020.0
20200925062856 62 336 2.0 3.0 0.00 0.00 0.00 29 1020.1
20200925062359 62 336 1.0 3.0 0.00 0.00 0.00 29 1020.0
20200925061856 62 336 2.0 3.0 0.00 0.00 0.00 29 1020.0
20200925061357 61 336 2.0 3.0 0.00 0.00 0.00 29 1020.0
20200925060900 61 336 2.0 3.0 0.00 0.00 0.00 29 1020.0
20200925060356 61 336 2.0 3.0 0.00 0.00 0.00 29 1020.0
20200925055857 61 336 2.0 3.0 0.00 0.00 0.00 29 1020.0
20200925055358 61 336 2.0 3.0 0.00 0.00 0.00 30 1020.0
20200925054857 61 336 2.0 4.0 0.00 0.00 0.00 30 1020.0
20200925054357 61 336 2.0 4.0 0.00 0.00 0.00 30 1020.0
20200925053855 61 336 2.0 3.0 0.00 0.00 0.00 30 1020.1
20200925053356 61 336 2.0 3.0 0.00 0.00 0.00 30 1020.1
20200925052856 61 336 1.0 3.0 0.00 0.00 0.00 30 1020.1
20200925052355 61 336 3.0 3.0 0.00 0.00 0.00 30 1020.1
20200925051856 61 336 2.0 3.0 0.00 0.00 0.00 29 1020.1
20200925051359 61 336 2.0 3.0 0.00 0.00 0.00 29 1020.1
20200925050856 61 336 2.0 3.0 0.00 0.00 0.00 29 1020.3
20200925050357 60 336 2.0 3.0 0.00 0.00 0.00 30 1020.3
20200925045905 60 336 2.0 3.0 0.00 0.00 0.00 30 1020.1
20200925045355 60 336 2.0 3.0 0.00 0.00 0.00 30 1020.3
20200925044856 61 336 2.0 4.0 0.00 0.00 0.00 30 1020.1
20200925044354 61 336 3.0 4.0 0.00 0.00 0.00 29 1020.3
20200925043854 61 336 3.0 4.0 0.00 0.00 0.00 29 1020.3
20200925043357 61 336 2.0 3.0 0.00 0.00 0.00 29 1020.4
20200925042853 61 336 2.0 3.0 0.00 0.00 0.00 29 1020.4
20200925042354 61 336 2.0 3.0 0.00 0.00 0.00 29 1020.4
20200925041856 61 336 2.0 3.0 0.00 0.00 0.00 29 1020.4
20200925041353 61 336 2.0 3.0 0.00 0.00 0.00 29 1020.4
20200925040852 61 336 3.0 4.0 0.00 0.00 0.00 30 1020.3
20200925040353 60 336 3.0 4.0 0.00 0.00 0.00 30 1020.4
20200925035855 60 334 3.0 4.0 0.00 0.00 0.00 30 1020.3
20200925035353 61 299 3.0 4.0 0.00 0.00 0.00 30 1020.3
20200925034853 61 293 2.0 4.0 0.00 0.00 0.00 29 1020.3
20200925034353 61 293 3.0 4.0 0.00 0.00 0.00 29 1020.4
20200925033852 61 293 2.0 4.0 0.00 0.00 0.00 29 1020.4
20200925033353 61 293 3.0 4.0 0.00 0.00 0.00 29 1020.4
20200925032852 61 293 2.0 4.0 0.00 0.00 0.00 29 1020.4
20200925032354 61 293 3.0 4.0 0.00 0.00 0.00 29 1020.4
20200925031853 61 292 2.0 3.0 0.00 0.00 0.00 29 1020.3
20200925031352 61 292 2.0 3.0 0.00 0.00 0.00 29 1020.4